Вернуться в каталог

COSMOS 791

АктивенВоенныеLEO
NORAD 8607·PAYLOAD·🇷🇺 Russia

Запущен Jan 28, 1976 с Plesetsk Cosmodrome

Loading…

Ближайшие Пролёты (ближайшие 24 часа)

TLE

СвежийSource: Space-Track

Эпоха: Sep 14, 2026, 18:54 UTC

1 08607U 76008A   26257.78753760 -.00000014  00000-0  92049-5 0  9992
2 08607  74.0587  12.8191 0053917  86.5278  79.4504 12.55046939319553

Отслеживайте COSMOS 791 в реальном времени с AllMySat

Download on the App Store